Time,TemperatureF,DewpointF,PressureIn,WindDirection,WindDirectionDegrees,WindSpeedMPH,WindSpeedGustMPH,Humidity,HourlyPrecipIn,Conditions,Clouds,dailyrainin,SoftwareType,DateUTC
2013-01-11 00:05:00,41.7,41.0,30.02,SSE,149,7.0,11.0,97,0.01,,,0.00,weatherlink.com 1.10,2013-01-11 06:05:00,
2013-01-11 00:20:00,42.5,42.0,30.01,SE,145,2.0,13.0,97,0.01,,,0.00,weatherlink.com 1.10,2013-01-11 06:20:00,
2013-01-11 00:35:00,42.8,42.0,30.00,SSE,153,7.0,9.0,97,0.01,,,0.00,weatherlink.com 1.10,2013-01-11 06:35:00,
2013-01-11 00:51:00,43.3,43.0,29.99,SE,124,2.0,11.0,97,0.01,,,0.01,weatherlink.com 1.10,2013-01-11 06:51:00,
2013-01-11 01:06:00,43.7,43.0,29.97,SSE,147,8.0,10.0,97,0.01,,,0.01,weatherlink.com 1.10,2013-01-11 07:06:00,
2013-01-11 01:21:00,44.0,43.0,29.96,SE,128,2.0,11.0,97,0.01,,,0.01,weatherlink.com 1.10,2013-01-11 07:21:00,
2013-01-11 01:36:00,44.4,44.0,29.95,SE,143,6.0,11.0,97,0.01,,,0.01,weatherlink.com 1.10,2013-01-11 07:36:00,
2013-01-11 01:51:00,44.8,44.0,29.94,SSE,157,6.0,16.0,97,0.00,,,0.01,weatherlink.com 1.10,2013-01-11 07:51:00,
2013-01-11 02:06:00,45.4,45.0,29.93,SE,145,3.0,13.0,97,0.01,,,0.02,weatherlink.com 1.10,2013-01-11 08:06:00,
2013-01-11 02:21:00,45.9,45.0,29.92,SSE,164,8.0,17.0,97,0.01,,,0.02,weatherlink.com 1.10,2013-01-11 08:21:00,
2013-01-11 02:36:00,46.5,46.0,29.91,South,178,8.0,14.0,97,0.01,,,0.02,weatherlink.com 1.10,2013-01-11 08:36:00,
2013-01-11 02:51:00,46.7,46.0,29.90,South,177,3.0,15.0,97,0.01,,,0.02,weatherlink.com 1.10,2013-01-11 08:51:00,
2013-01-11 03:06:00,47.1,46.0,29.90,SSE,168,8.0,13.0,97,0.01,,,0.03,weatherlink.com 1.10,2013-01-11 09:06:00,
2013-01-11 03:21:00,47.3,47.0,29.88,SSE,163,5.0,11.0,97,0.01,,,0.03,weatherlink.com 1.10,2013-01-11 09:21:00,
2013-01-11 03:36:00,48.1,48.0,29.88,SSE,166,7.0,13.0,98,0.01,,,0.03,weatherlink.com 1.10,2013-01-11 09:36:00,
2013-01-11 03:51:00,49.0,49.0,29.87,South,169,12.0,16.0,98,0.02,,,0.04,weatherlink.com 1.10,2013-01-11 09:51:00,
2013-01-11 04:06:00,50.0,50.0,29.86,South,172,11.0,15.0,98,0.01,,,0.04,weatherlink.com 1.10,2013-01-11 10:06:00,
2013-01-11 04:21:00,50.2,49.0,29.84,South,179,9.0,16.0,97,0.01,,,0.04,weatherlink.com 1.10,2013-01-11 10:21:00,
2013-01-11 04:36:00,50.7,50.0,29.82,SE,137,8.0,16.0,98,0.02,,,0.05,weatherlink.com 1.10,2013-01-11 10:36:00,
2013-01-11 04:51:00,50.8,50.0,29.78,SSE,163,3.0,7.0,97,0.01,,,0.05,weatherlink.com 1.10,2013-01-11 10:51:00,
2013-01-11 05:06:00,50.6,50.0,29.81,South,174,8.0,12.0,97,0.01,,,0.05,weatherlink.com 1.10,2013-01-11 11:06:00,
2013-01-11 05:21:00,49.9,49.0,29.81,South,179,5.0,11.0,97,0.01,,,0.05,weatherlink.com 1.10,2013-01-11 11:21:00,
2013-01-11 05:36:00,50.1,49.0,29.80,South,170,6.0,7.0,97,0.00,,,0.05,weatherlink.com 1.10,2013-01-11 11:36:00,
2013-01-11 05:51:00,50.0,50.0,29.81,South,174,5.0,8.0,98,0.01,,,0.06,weatherlink.com 1.10,2013-01-11 11:51:00,
2013-01-11 06:21:00,50.3,50.0,29.82,South,176,7.0,10.0,98,0.01,,,0.06,weatherlink.com 1.10,2013-01-11 12:21:00,
2013-01-11 06:36:00,50.6,50.0,29.81,South,170,12.0,14.0,98,0.02,,,0.07,weatherlink.com 1.10,2013-01-11 12:36:00,
2013-01-11 06:51:00,51.0,51.0,29.81,South,186,10.0,16.0,98,0.01,,,0.07,weatherlink.com 1.10,2013-01-11 12:51:00,
2013-01-11 07:06:00,51.4,51.0,29.81,South,189,6.0,16.0,98,0.01,,,0.07,weatherlink.com 1.10,2013-01-11 13:06:00,
2013-01-11 07:21:00,51.8,51.0,29.81,South,182,9.0,17.0,98,0.01,,,0.07,weatherlink.com 1.10,2013-01-11 13:21:00,
2013-01-11 07:37:00,52.6,52.0,29.82,South,191,9.0,16.0,97,0.00,,,0.07,weatherlink.com 1.10,2013-01-11 13:37:00,
2013-01-11 07:52:00,52.8,52.0,29.83,SSW,203,7.0,19.0,97,0.01,,,0.08,weatherlink.com 1.10,2013-01-11 13:52:00,
2013-01-11 08:07:00,53.0,52.0,29.84,West,259,8.0,16.0,96,0.01,,,0.08,weatherlink.com 1.10,2013-01-11 14:07:00,
2013-01-11 08:22:00,52.8,51.0,29.84,SW,228,7.0,16.0,94,0.01,,,0.08,weatherlink.com 1.10,2013-01-11 14:22:00,
2013-01-11 08:37:00,52.4,51.0,29.84,SW,217,8.0,14.0,94,0.01,,,0.08,weatherlink.com 1.10,2013-01-11 14:37:00,
2013-01-11 08:52:00,52.1,51.0,29.85,SW,217,8.0,12.0,94,0.00,,,0.08,weatherlink.com 1.10,2013-01-11 14:52:00,
2013-01-11 09:07:00,51.7,50.0,29.86,WSW,257,4.0,12.0,94,0.00,,,0.08,weatherlink.com 1.10,2013-01-11 15:07:00,
2013-01-11 09:22:00,51.4,50.0,29.86,WSW,245,9.0,13.0,93,0.01,,,0.09,weatherlink.com 1.10,2013-01-11 15:22:00,
2013-01-11 09:37:00,51.0,49.0,29.87,WSW,241,4.0,15.0,94,0.01,,,0.09,weatherlink.com 1.10,2013-01-11 15:37:00,
2013-01-11 09:52:00,50.6,49.0,29.88,SW,235,7.0,10.0,94,0.01,,,0.09,weatherlink.com 1.10,2013-01-11 15:52:00,
2013-01-11 10:07:00,50.6,49.0,29.88,SSW,206,4.0,16.0,94,0.01,,,0.09,weatherlink.com 1.10,2013-01-11 16:07:00,
2013-01-11 10:22:00,50.5,49.0,29.88,SW,230,6.0,13.0,94,0.01,,,0.10,weatherlink.com 1.10,2013-01-11 16:22:00,
2013-01-11 10:37:00,50.3,49.0,29.88,SW,216,8.0,17.0,94,0.01,,,0.10,weatherlink.com 1.10,2013-01-11 16:37:00,
2013-01-11 10:52:00,50.0,48.0,29.88,SW,216,5.0,16.0,94,0.01,,,0.10,weatherlink.com 1.10,2013-01-11 16:52:00,
2013-01-11 11:07:00,49.8,48.0,29.88,SW,220,10.0,12.0,94,0.01,,,0.10,weatherlink.com 1.10,2013-01-11 17:07:00,
2013-01-11 11:22:00,49.5,48.0,29.88,WNW,285,6.0,16.0,95,0.00,,,0.10,weatherlink.com 1.10,2013-01-11 17:22:00,
2013-01-11 11:37:00,49.4,48.0,29.87,SW,214,9.0,18.0,94,0.01,,,0.11,weatherlink.com 1.10,2013-01-11 17:37:00,
2013-01-11 11:52:00,49.2,48.0,29.86,SW,218,8.0,13.0,94,0.01,,,0.11,weatherlink.com 1.10,2013-01-11 17:52:00,
2013-01-11 12:07:00,49.1,48.0,29.86,SSW,193,6.0,12.0,94,0.01,,,0.11,weatherlink.com 1.10,2013-01-11 18:07:00,
2013-01-11 12:22:00,49.0,47.0,29.86,SSW,199,6.0,14.0,94,0.01,,,0.11,weatherlink.com 1.10,2013-01-11 18:22:00,
2013-01-11 12:37:00,48.7,47.0,29.87,SSW,209,7.0,11.0,94,0.00,,,0.11,weatherlink.com 1.10,2013-01-11 18:37:00,
2013-01-11 12:52:00,48.9,47.0,29.87,SW,228,5.0,14.0,93,0.00,,,0.11,weatherlink.com 1.10,2013-01-11 18:52:00,
2013-01-11 13:07:00,48.6,47.0,29.88,SSW,208,7.0,13.0,94,0.01,,,0.12,weatherlink.com 1.10,2013-01-11 19:07:00,
2013-01-11 13:22:00,48.4,47.0,29.88,WSW,238,7.0,12.0,94,0.01,,,0.12,weatherlink.com 1.10,2013-01-11 19:22:00,
2013-01-11 13:37:00,48.6,47.0,29.87,South,190,5.0,13.0,94,0.01,,,0.12,weatherlink.com 1.10,2013-01-11 19:37:00,
2013-01-11 13:52:00,48.8,47.0,29.87,South,174,5.0,11.0,93,0.01,,,0.12,weatherlink.com 1.10,2013-01-11 19:52:00,
2013-01-11 14:07:00,49.4,48.0,29.88,SSW,201,6.0,8.0,93,0.00,,,0.12,weatherlink.com 1.10,2013-01-11 20:07:00,
2013-01-11 14:22:00,49.7,48.0,29.88,South,183,7.0,8.0,92,0.01,,,0.13,weatherlink.com 1.10,2013-01-11 20:22:00,
2013-01-11 14:37:00,50.1,48.0,29.88,SSW,197,8.0,11.0,92,0.01,,,0.13,weatherlink.com 1.10,2013-01-11 20:37:00,
2013-01-11 14:52:00,50.9,48.0,29.88,SSW,199,6.0,9.0,91,0.01,,,0.13,weatherlink.com 1.10,2013-01-11 20:52:00,
2013-01-11 15:07:00,51.3,49.0,29.88,South,184,6.0,12.0,90,0.01,,,0.13,weatherlink.com 1.10,2013-01-11 21:07:00,
2013-01-11 15:22:00,51.6,49.0,29.87,SSE,168,6.0,11.0,90,0.00,,,0.13,weatherlink.com 1.10,2013-01-11 21:22:00,
2013-01-11 15:37:00,51.2,48.0,29.86,SSE,167,6.0,11.0,89,0.00,,,0.13,weatherlink.com 1.10,2013-01-11 21:37:00,
2013-01-11 15:52:00,51.0,48.0,29.87,South,178,9.0,10.0,90,0.01,,,0.14,weatherlink.com 1.10,2013-01-11 21:52:00,
2013-01-11 16:07:00,50.9,48.0,29.87,South,187,4.0,11.0,91,0.01,,,0.14,weatherlink.com 1.10,2013-01-11 22:07:00,
2013-01-11 16:22:00,50.6,48.0,29.85,South,180,7.0,12.0,91,0.01,,,0.14,weatherlink.com 1.10,2013-01-11 22:22:00,
2013-01-11 16:37:00,50.1,48.0,29.85,South,173,9.0,13.0,92,0.01,,,0.14,weatherlink.com 1.10,2013-01-11 22:37:00,
2013-01-11 16:52:00,49.9,48.0,29.86,South,182,7.0,13.0,92,0.00,,,0.14,weatherlink.com 1.10,2013-01-11 22:52:00,
2013-01-11 17:07:00,49.4,47.0,29.86,South,178,6.0,8.0,92,0.00,,,0.14,weatherlink.com 1.10,2013-01-11 23:07:00,
2013-01-11 17:22:00,49.1,47.0,29.87,South,182,8.0,12.0,93,0.01,,,0.15,weatherlink.com 1.10,2013-01-11 23:22:00,
2013-01-11 17:37:00,49.1,48.0,29.86,SSE,168,7.0,12.0,94,0.01,,,0.15,weatherlink.com 1.10,2013-01-11 23:37:00,
2013-01-11 17:53:00,49.4,48.0,29.85,South,176,7.0,12.0,93,0.01,,,0.15,weatherlink.com 1.10,2013-01-11 23:53:00,
2013-01-11 18:07:00,49.8,48.0,29.85,SSE,165,7.0,14.0,93,0.01,,,0.15,weatherlink.com 1.10,2013-01-12 00:07:00,
2013-01-11 18:22:00,50.2,48.0,29.86,South,172,11.0,15.0,92,0.00,,,0.15,weatherlink.com 1.10,2013-01-12 00:22:00,
2013-01-11 18:37:00,50.0,48.0,29.85,South,178,8.0,15.0,92,0.00,,,0.15,weatherlink.com 1.10,2013-01-12 00:37:00,
2013-01-11 18:52:00,49.5,47.0,29.85,South,179,10.0,14.0,92,0.00,,,0.15,weatherlink.com 1.10,2013-01-12 00:52:00,
2013-01-11 19:07:00,49.0,47.0,29.85,South,174,12.0,15.0,92,0.00,,,0.15,weatherlink.com 1.10,2013-01-12 01:07:00,
2013-01-11 19:22:00,48.8,47.0,29.85,SSE,168,6.0,13.0,93,0.01,,,0.16,weatherlink.com 1.10,2013-01-12 01:22:00,
2013-01-11 19:37:00,48.7,47.0,29.86,South,183,7.0,10.0,93,0.01,,,0.16,weatherlink.com 1.10,2013-01-12 01:37:00,
2013-01-11 19:52:00,48.6,47.0,29.86,SSE,154,7.0,11.0,93,0.01,,,0.16,weatherlink.com 1.10,2013-01-12 01:52:00,
2013-01-11 20:07:00,48.6,47.0,29.86,South,172,8.0,11.0,93,0.01,,,0.16,weatherlink.com 1.10,2013-01-12 02:07:00,
2013-01-11 20:22:00,48.6,47.0,29.86,South,184,8.0,12.0,93,0.00,,,0.16,weatherlink.com 1.10,2013-01-12 02:22:00,
2013-01-11 20:38:00,48.8,47.0,29.84,South,177,11.0,14.0,93,0.00,,,0.16,weatherlink.com 1.10,2013-01-12 02:38:00,
2013-01-11 20:52:00,49.2,48.0,29.85,South,187,8.0,13.0,94,0.00,,,0.16,weatherlink.com 1.10,2013-01-12 02:52:00,
2013-01-11 21:07:00,49.8,48.0,29.84,South,191,9.0,16.0,94,0.00,,,0.16,weatherlink.com 1.10,2013-01-12 03:07:00,
2013-01-11 21:22:00,50.4,49.0,29.84,SSW,195,10.0,17.0,93,0.01,,,0.17,weatherlink.com 1.10,2013-01-12 03:22:00,
2013-01-11 21:37:00,50.6,48.0,29.84,SSW,193,10.0,16.0,92,0.01,,,0.17,weatherlink.com 1.10,2013-01-12 03:37:00,
2013-01-11 21:52:00,50.7,49.0,29.84,South,183,9.0,14.0,92,0.01,,,0.17,weatherlink.com 1.10,2013-01-12 03:52:00,
2013-01-11 22:07:00,50.7,49.0,29.83,SSE,166,8.0,16.0,92,0.01,,,0.17,weatherlink.com 1.10,2013-01-12 04:07:00,
2013-01-11 22:22:00,50.5,48.0,29.83,South,173,9.0,15.0,92,0.00,,,0.17,weatherlink.com 1.10,2013-01-12 04:22:00,
2013-01-11 22:37:00,50.5,48.0,29.84,South,184,12.0,14.0,92,0.00,,,0.17,weatherlink.com 1.10,2013-01-12 04:37:00,
2013-01-11 22:52:00,50.7,48.0,29.84,SW,214,7.0,15.0,91,0.00,,,0.17,weatherlink.com 1.10,2013-01-12 04:52:00,
2013-01-11 23:07:00,50.8,48.0,29.83,South,184,12.0,16.0,91,0.00,,,0.17,weatherlink.com 1.10,2013-01-12 05:07:00,
2013-01-11 23:22:00,50.7,48.0,29.83,South,172,7.0,14.0,90,0.00,,,0.17,weatherlink.com 1.10,2013-01-12 05:22:00,
2013-01-11 23:37:00,51.0,48.0,29.84,SSW,195,12.0,17.0,90,0.00,,,0.17,weatherlink.com 1.10,2013-01-12 05:37:00,
2013-01-11 23:52:00,51.3,48.0,29.84,SSW,197,7.0,14.0,89,0.01,,,0.18,weatherlink.com 1.10,2013-01-12 05:52:00,